[[{"header":{"parameterUnit":"m.s-1","parameterCategory":1,"la1":30.2991,"la2":30.254,"lo1":-89.0895,"lo2":-89.0444,"dy":0.0017,"dx":0.0017,"nx":28,"ny":28,"refTime":"2024-12-10T09:00:00:Z","depth":0,"parameterNumber":2,"parameterNumberName":"U-component_of_WINDS"},"data":[0,0,0,0,0,0,0,0,0,0,0,0,0,0,0,0,0,0,0,0,0,0,0,0,0,0,0,0,0,0,0,0,0,0,0,0,0,0,0,0,0,0,0,0,0,0,0,0,0,0,0,0,0,0,0,0,0,0,-0.4663,-0.4663,0,-0.4653,-0.4653,-0.4653,-0.4649,-0.4649,-0.4649,-0.465,-0.4639,-0.4639,-0.4639,0,0,0,0,0,0,0,0,0,0,0,0,0,-0.468,-0.468,-0.4663,-0.4663,-0.4663,-0.4653,-0.4653,-0.4653,-0.4649,-0.4649,-0.465,-0.465,-0.4639,-0.4639,-0.4639,0,0,0,0,0,0,0,0,0,0,0,0,0,-0.4671,-0.468,-0.4663,-0.466,-0.466,-0.4653,-0.4653,-0.4653,-0.4649,-0.4649,-0.465,-0.465,-0.4639,-0.4639,-0.4639,-0.4634,0,0,-0.4637,-0.4637,0,0,0,0,0,0,0,0,-0.4672,-0.4671,-0.4661,-0.466,-0.466,-0.4652,-0.4655,-0.4646,-0.4649,-0.4653,-0.465,-0.465,-0.4644,-0.4643,-0.4641,-0.4634,-0.4633,-0.4637,-0.4637,-0.4637,-0.4636,0,0,0,0,0,0,0,-0.4673,-0.4671,-0.4659,-0.4661,-0.466,-0.4659,-0.4658,-0.4653,-0.4648,-0.4653,-0.4653,-0.4652,-0.4643,-0.4641,-0.464,-0.4633,-0.4637,-0.4637,-0.4636,-0.4636,-0.4621,-0.4621,0,0,0,0,0,0,-0.4674,-0.4672,-0.4659,-0.4659,-0.4666,-0.4659,-0.4658,-0.4655,-0.4648,-0.4647,-0.4651,-0.4651,-0.4642,-0.4641,-0.464,-0.4634,-0.4637,-0.4636,-0.4636,-0.4621,-0.4621,-0.4621,0,0,0,0,0,0,-0.4674,-0.4673,-0.466,-0.4665,-0.4664,-0.4658,-0.4655,-0.4655,-0.4652,-0.4647,-0.4646,-0.465,-0.4642,-0.4641,-0.4635,-0.4633,-0.4636,-0.4635,-0.4621,-0.4621,-0.4621,-0.4622,0,0,0,0,0,0,-0.4674,-0.4673,-0.4671,-0.4665,-0.4663,-0.4655,-0.4655,-0.4654,-0.4651,-0.4651,-0.4646,-0.4645,-0.4642,-0.4636,-0.4635,-0.4633,-0.4635,-0.4621,-0.4621,-0.4621,-0.4622,-0.4622,-0.4621,0,0,0,0,0,-0.4675,-0.4672,-0.4671,-0.467,-0.4661,-0.4655,-0.4654,-0.4651,-0.4651,-0.465,-0.4646,-0.4645,-0.4634,-0.4636,-0.4634,-0.4632,-0.4621,-0.4621,-0.4621,-0.4622,-0.4622,-0.4621,0,0,0,0,0,0,-0.4678,-0.4671,-0.467,-0.4665,-0.4661,-0.4655,-0.4653,-0.4651,-0.4647,-0.4647,-0.4643,-0.4642,-0.4636,-0.4634,-0.4636,-0.4627,-0.4628,-0.4627,-0.4629,-0.4629,-0.4628,-0.4629,-0.4635,0,0,0,0,0,-0.4678,-0.4674,-0.4668,-0.4664,-0.4662,-0.4658,-0.4655,-0.4653,-0.4648,-0.4647,-0.4643,-0.4639,-0.4634,-0.4631,-0.4627,-0.4622,-0.462,-0.4619,-0.4619,-0.4619,-0.4618,-0.4614,-0.4614,-0.462,-0.462,-0.462,0,0,-0.4679,-0.4674,-0.4672,-0.4665,-0.4661,-0.4657,-0.4656,-0.4652,-0.4649,-0.4646,-0.4641,-0.4638,-0.4633,-0.4627,-0.4624,-0.4625,-0.4616,-0.4618,-0.4618,-0.4618,-0.4614,-0.4614,-0.4613,-0.462,-0.462,-0.462,0,0,-0.4676,-0.4673,-0.4669,-0.4665,-0.466,-0.4657,-0.4656,-0.465,-0.4647,-0.4642,-0.464,-0.4636,-0.4628,-0.4624,-0.4621,-0.4617,-0.4615,-0.4616,-0.4614,-0.4611,-0.461,-0.461,-0.4608,-0.4607,-0.4615,-0.4615,-0.4615,0,-0.4677,-0.4671,-0.4667,-0.4663,-0.4659,-0.4656,-0.4652,-0.4649,-0.4642,-0.464,-0.464,-0.463,-0.4627,-0.462,-0.4618,-0.4616,-0.4615,-0.4616,-0.4611,-0.461,-0.461,-0.4607,-0.4607,-0.4615,-0.4615,-0.4615,-0.4615,0,-0.4672,-0.4667,-0.4665,-0.4658,-0.4654,-0.465,-0.4645,-0.4642,-0.464,-0.4637,-0.4631,-0.4626,-0.4621,-0.4619,-0.4617,-0.4611,-0.4612,-0.4611,-0.4612,-0.4609,-0.4607,-0.4606,-0.4615,-0.4615,-0.4615,-0.4615,0,0,-0.4672,-0.4663,-0.4662,-0.4658,-0.4651,-0.4648,-0.4643,-0.4637,-0.4634,-0.463,-0.4625,-0.4618,-0.4618,-0.4615,-0.4612,-0.4609,-0.4605,-0.4609,-0.4609,-0.4608,-0.4598,-0.4597,-0.4597,-0.4604,-0.4604,-0.4604,-0.4598,0,-0.4669,-0.466,-0.4656,-0.4649,-0.4644,-0.4641,-0.4637,-0.4632,-0.4629,-0.4624,-0.4621,-0.4616,-0.4616,-0.4613,-0.461,-0.4606,-0.4603,-0.4607,-0.4599,-0.4599,-0.46,-0.4596,-0.4596,-0.4591,-0.4597,-0.4597,-0.4597,0,-0.4664,-0.4659,-0.4651,-0.4644,-0.4642,-0.4638,-0.4632,-0.4628,-0.4622,-0.462,-0.4616,-0.4613,-0.4608,-0.4609,-0.4601,-0.4603,-0.46,-0.4598,-0.4597,-0.4596,-0.4598,-0.4594,-0.4589,-0.4588,-0.4596,-0.4596,-0.4596,0,-0.4664,-0.4655,-0.4649,-0.4646,-0.4638,-0.4635,-0.4632,-0.4626,-0.4623,-0.4617,-0.4615,-0.4609,-0.4606,-0.4601,-0.4597,-0.4598,-0.4589,-0.459,-0.4587,-0.4587,-0.4585,-0.4585,-0.4579,-0.4584,-0.4584,-0.4584,-0.4584,0,-0.4661,-0.4656,-0.4649,-0.4645,-0.464,-0.4635,-0.463,-0.4626,-0.4621,-0.4616,-0.4613,-0.4609,-0.4604,-0.4599,-0.4595,-0.4589,-0.4588,-0.4585,-0.4584,-0.4585,-0.4586,-0.4583,-0.4583,-0.4584,-0.4584,-0.4584,-0.4584,0,-0.466,-0.4655,-0.4648,-0.4641,-0.4639,-0.4635,-0.4628,-0.4624,-0.4621,-0.4615,-0.4613,-0.4607,-0.4601,-0.4596,-0.4588,-0.4586,-0.4579,-0.4578,-0.4581,-0.458,-0.4577,-0.4577,-0.4568,-0.4567,-0.4573,-0.4573,-0.4573,0,-0.4658,-0.4654,-0.4646,-0.4642,-0.4639,-0.4633,-0.4629,-0.4625,-0.4621,-0.4613,-0.461,-0.4603,-0.4598,-0.4588,-0.4583,-0.4577,-0.4576,-0.4573,-0.4575,-0.4575,-0.4575,-0.4575,-0.4574,-0.4573,-0.4573,-0.4573,-0.4573,0,-0.4655,-0.4652,-0.4647,-0.464,-0.4635,-0.463,-0.4624,-0.4622,-0.4616,-0.4611,-0.4605,-0.46,-0.4592,-0.4585,-0.4578,-0.4574,-0.4572,-0.4572,-0.4571,-0.4571,-0.4573,-0.4571,-0.458,-0.4572,-0.4572,-0.4572,-0.4572,-0.4572,-0.4653,-0.4649,-0.4642,-0.4636,-0.4631,-0.4626,-0.4621,-0.4617,-0.4611,-0.4604,-0.4601,-0.4594,-0.4588,-0.4578,-0.4574,-0.4568,-0.4568,-0.4567,-0.4566,-0.4566,-0.4565,-0.4574,-0.4567,-0.4567,-0.4567,-0.4567,-0.4567,0,-0.4649,-0.4644,-0.4639,-0.4631,-0.4625,-0.4624,-0.4617,-0.4613,-0.4607,-0.4601,-0.4595,-0.4587,-0.458,-0.4574,-0.4567,-0.4564,-0.4562,-0.4562,-0.4562,-0.4561,-0.4566,-0.4568,-0.4563,-0.4563,-0.4563,-0.4563,-0.4563,-0.4563,-0.4647,-0.4639,-0.4636,-0.4626,-0.4622,-0.4614,-0.4611,-0.4606,-0.4601,-0.4592,-0.4586,-0.4582,-0.4576,-0.4568,-0.4562,-0.456,-0.4557,-0.4557,-0.4555,-0.456,-0.4561,-0.4561,-0.4562,-0.4557,-0.4557,-0.455,-0.455,-0.455]},{"header":{"parameterUnit":"m.s-1","parameterCategory":1,"la1":30.2991,"la2":30.254,"lo1":-89.0895,"lo2":-89.0444,"dy":0.0017,"dx":0.0017,"nx":28,"ny":28,"refTime":"2024-12-10T09:00:00:Z","depth":0,"parameterNumber":3,"parameterNumberName":"V-component_of_WINDS"},"data":[0,0,0,0,0,0,0,0,0,0,0,0,0,0,0,0,0,0,0,0,0,0,0,0,0,0,0,0,0,0,0,0,0,0,0,0,0,0,0,0,0,0,0,0,0,0,0,0,0,0,0,0,0,0,0,0,0,0,2.8474,2.8475,0,2.8586,2.8587,2.8589,2.8606,2.8605,2.8604,2.8603,2.8718,2.8722,2.8726,0,0,0,0,0,0,0,0,0,0,0,0,0,2.8274,2.8278,2.8474,2.8475,2.8477,2.8586,2.8587,2.8589,2.8606,2.8605,2.8604,2.8603,2.8717,2.8721,2.8726,0,0,0,0,0,0,0,0,0,0,0,0,0,2.8371,2.8279,2.8474,2.8498,2.8502,2.8586,2.8588,2.8589,2.8607,2.8605,2.8604,2.8602,2.8715,2.8721,2.8727,2.8794,0,0,2.8745,2.8748,0,0,0,0,0,0,0,0,2.8366,2.8378,2.8493,2.8497,2.8501,2.8581,2.8559,2.8658,2.8607,2.8567,2.8603,2.8601,2.8673,2.8683,2.8707,2.8799,2.8804,2.8746,2.8749,2.8752,2.8753,0,0,0,0,0,0,0,2.8359,2.8374,2.8518,2.8495,2.85,2.8504,2.8516,2.8578,2.8627,2.857,2.8572,2.8585,2.8675,2.8701,2.871,2.8806,2.8745,2.8751,2.8754,2.8757,2.8959,2.8961,0,0,0,0,0,0,2.8348,2.8368,2.8515,2.8522,2.8428,2.8509,2.8522,2.8556,2.8626,2.8636,2.8586,2.8585,2.8692,2.8703,2.8714,2.8798,2.8752,2.8757,2.8761,2.8957,2.8959,2.8961,0,0,0,0,0,0,2.8343,2.8361,2.851,2.8445,2.8465,2.8514,2.8552,2.8559,2.8586,2.8638,2.8647,2.8604,2.8691,2.8706,2.8774,2.8802,2.876,2.8765,2.8955,2.8958,2.896,2.8966,0,0,0,0,0,0,2.8338,2.8359,2.8385,2.8446,2.8468,2.8568,2.8554,2.8563,2.8596,2.8596,2.8657,2.8666,2.8691,2.8765,2.878,2.881,2.877,2.8953,2.8956,2.896,2.8964,2.8969,2.8973,0,0,0,0,0,2.833,2.8382,2.8386,2.8404,2.8502,2.857,2.8583,2.861,2.8598,2.8625,2.8659,2.8664,2.8796,2.8772,2.8789,2.8821,2.8951,2.8955,2.8959,2.8962,2.8968,2.8973,0,0,0,0,0,0,2.8323,2.839,2.8396,2.8469,2.8513,2.8573,2.8607,2.8616,2.8665,2.8663,2.8695,2.8709,2.8776,2.8805,2.8776,2.889,2.8873,2.888,2.8869,2.8875,2.888,2.8872,2.8775,0,0,0,0,0,2.833,2.838,2.8436,2.8495,2.8517,2.8558,2.8589,2.8606,2.8654,2.8673,2.8712,2.8758,2.881,2.8844,2.8895,2.8967,2.8982,2.8998,2.9002,2.9006,2.9013,2.9055,2.9063,2.8975,2.8975,2.8975,0,0,2.8345,2.8388,2.8417,2.8494,2.8531,2.8582,2.8574,2.8628,2.8667,2.8681,2.8749,2.8779,2.8832,2.8904,2.8937,2.893,2.904,2.9011,2.9014,2.9019,2.906,2.9068,2.9075,2.8977,2.8977,2.8976,0,0,2.8399,2.8435,2.8489,2.8526,2.8582,2.8609,2.8622,2.868,2.8701,2.8769,2.8781,2.8827,2.8915,2.8953,2.8984,2.9052,2.9059,2.9067,2.9092,2.9133,2.914,2.9146,2.9172,2.9181,2.9073,2.9073,2.9073,0,2.841,2.8488,2.8516,2.857,2.8604,2.8619,2.8674,2.8708,2.8778,2.8801,2.8791,2.8904,2.8941,2.9022,2.9038,2.9062,2.9078,2.9061,2.9137,2.9143,2.915,2.9175,2.9184,2.9074,2.9074,2.9074,2.9074,0,2.85,2.8554,2.8591,2.8658,2.8695,2.875,2.8785,2.882,2.8834,2.8862,2.8931,2.8976,2.9036,2.9056,2.907,2.914,2.9134,2.913,2.9114,2.9158,2.9182,2.9192,2.9075,2.9075,2.9075,2.9075,0,0,2.8555,2.8636,2.8649,2.868,2.8742,2.8785,2.8839,2.8898,2.8928,2.8975,2.9023,2.9097,2.9094,2.9129,2.9147,2.9182,2.9235,2.9175,2.9177,2.9186,2.9316,2.932,2.9331,2.9239,2.9241,2.9243,2.9312,0,2.8617,2.8716,2.8742,2.8826,2.8877,2.8891,2.8939,2.8982,2.901,2.9057,2.9086,2.914,2.9131,2.9152,2.9187,2.9221,2.9262,2.9216,2.9285,2.9287,2.9273,2.9343,2.9347,2.9411,2.9322,2.9323,2.9324,0,2.8704,2.8753,2.8843,2.8899,2.8921,2.8964,2.9021,2.9065,2.9114,2.9131,2.917,2.9185,2.9243,2.9222,2.9303,2.9271,2.93,2.9321,2.9324,2.9334,2.931,2.9356,2.9432,2.9442,2.9339,2.9338,2.9337,0,2.8737,2.8825,2.8891,2.8916,2.8983,2.9013,2.9042,2.909,2.9124,2.9173,2.9196,2.9251,2.9282,2.9324,2.9353,2.9335,2.9432,2.9413,2.9449,2.9448,2.9471,2.9469,2.9554,2.9486,2.9486,2.9485,2.9485,0,2.8806,2.8861,2.8907,2.8947,2.9008,2.9037,2.9097,2.9127,2.9169,2.9216,2.923,2.9274,2.9308,2.9357,2.9379,2.9444,2.9457,2.9473,2.9479,2.9473,2.9471,2.9495,2.9492,2.9488,2.9487,2.9487,2.9486,0,2.8855,2.8887,2.896,2.9017,2.9032,2.9075,2.9124,2.9164,2.9191,2.925,2.9265,2.9308,2.9365,2.9398,2.9469,2.9485,2.9557,2.956,2.9541,2.9544,2.9579,2.9576,2.9683,2.9699,2.9618,2.9619,2.9619,0,2.8897,2.894,2.9001,2.9034,2.9063,2.9115,2.915,2.9179,2.9215,2.9274,2.9307,2.9365,2.9414,2.9504,2.9542,2.9597,2.9603,2.9636,2.9611,2.9604,2.9606,2.9604,2.9609,2.9641,2.9642,2.9643,2.9643,0,2.8971,2.8985,2.9035,2.909,2.9132,2.9177,2.9221,2.9247,2.9284,2.9323,2.9382,2.9419,2.9493,2.9551,2.9609,2.9639,2.9648,2.965,2.9662,2.9658,2.9646,2.9655,2.9555,2.9649,2.9648,2.9648,2.9647,2.9647,2.902,2.9058,2.9108,2.9163,2.9199,2.9241,2.9281,2.9313,2.9363,2.9425,2.9439,2.9502,2.955,2.9629,2.966,2.971,2.9704,2.972,2.9725,2.9729,2.9731,2.9636,2.972,2.972,2.972,2.972,2.972,0,2.9096,2.9128,2.9178,2.924,2.9284,2.9287,2.9337,2.9373,2.9428,2.9472,2.9519,2.9587,2.9643,2.9684,2.9742,2.9773,2.9779,2.9788,2.9787,2.9794,2.9732,2.9717,2.9782,2.9782,2.9782,2.9782,2.9782,2.9782,2.914,2.9207,2.9226,2.9311,2.9342,2.9404,2.9432,2.9471,2.9506,2.9581,2.9628,2.9654,2.9698,2.9759,2.981,2.9821,2.9843,2.9851,2.9863,2.9805,2.9798,2.9792,2.9778,2.9855,2.9855,2.9921,2.9921,2.9922]}]]